Regional Weather Roundup
Issued by NWS Wilmington, NC

Home | Current Version | Previous Version | Text Only | Print | Product List | Glossary On
Versions: 1 2 3 4 5 6 7 8 9 10 11 12 13 14 15 16 17 18 19 20 21 22 23 24 25 26 27
000
ASUS42 KILM 211013
RWRILM
RWRILM
REGIONAL HOURLY WEATHER ROUNDUP
NATIONAL WEATHER SERVICE WILMINGTON NC
600 AM EDT SAT APR 21 2018

NOTE: "FAIR" INDICATES FEW OR NO CLOUDS BELOW 12,000 FEET WITH NO
SIGNIFICANT WEATHER AND/OR OBSTRUCTIONS TO VISIBILITY.

...............WFO WILMINGTON COUNTY WARNING AREA...............

......COASTAL NC AND SC COUNTIES......

CITY           SKY/WX    TMP DP  RH WIND       PRES   REMARKS
WILMINGTON     FAIR      40  38  93 NE5       30.37R
N MYRTLE BEACH FAIR      43  42  97 CALM      30.36R
MYRTLE BEACH   FAIR      57  38  48 E6        30.37R

......INLAND NC AND SC COUNTIES.......

CITY           SKY/WX    TMP DP  RH WIND       PRES   REMARKS
LUMBERTON      FAIR      36  36 100 CALM      30.37R
ELIZABETHTOWN  FAIR      39  37  94 MISG      30.38R
WHITEVILLE     FAIR      40  39  96 CALM      30.37R
FLORENCE       FAIR      41  39  93 N3        30.37R
DARLINGTON     FAIR      40  39  97 N3        30.38R
KINGSTREE      FAIR      37  36  93 CALM      30.36S
HARTSVILLE     FAIR      37  37 100 CALM      30.37R
BENNETTSVILLE  FAIR      37  37 100 CALM      30.37S
CONWAY         FAIR      37  37 100 CALM      30.37R
GEORGETOWN     FAIR      43  41  93 NE5       30.36R
MARION         FAIR      36  36 100 CALM      30.38R

....................REST OF NORTH CAROLINA......................

.........EASTERN NC.........

CITY           SKY/WX    TMP DP  RH WIND       PRES   REMARKS
CAPE HATTERAS  FAIR      46  37  71 NE5       30.39R
JACKSONVILLE   FAIR      39  38  96 N6        30.40R WCI  35
MOREHEAD CITY  FAIR      45  40  82 NE6       30.39R
KENANSVILLE    FAIR      36  34  93 CALM      30.40R
NEW BERN       FAIR      41  40  96 CALM      30.41R
ELIZABETH CITY FAIR      40  39  97 NW3       30.42R

.........CENTRAL NC.........

CITY           SKY/WX    TMP DP  RH WIND       PRES   REMARKS
RALEIGH DURHAM FAIR      39  33  79 CALM      30.40R
ROCKY MOUNT    FAIR      37  36  96 CALM      30.42R
ROANOKE RAPIDS NOT AVBL
FAYETTEVILLE   FAIR      38  35  89 CALM      30.38R
HOFFMAN        FAIR      33  32  95 CALM      30.38R

.........WESTERN NC.........

CITY           SKY/WX    TMP DP  RH WIND       PRES   REMARKS
CHARLOTTE      FAIR      44  33  65 N3        30.37R
GREENSBORO     FAIR      41  29  62 NE9       30.38R
HICKORY        NOT AVBL
BOONE          NOT AVBL
ASHEVILLE      NOT AVBL

.....................REST OF SOUTH CAROLINA.....................

.........EASTERN SC.........

CITY           SKY/WX    TMP DP  RH WIND       PRES   REMARKS
CHARLESTON     FAIR      48  44  86 NE6       30.32S
BEAUFORT MCAS  FAIR      55  48  77 NE8       30.31R
HILTON HEAD    FAIR      61  46  59 NE13G18   30.30R

.........CENTRAL SC.........

CITY           SKY/WX    TMP DP  RH WIND       PRES   REMARKS
COLUMBIA       FAIR      40  37  89 CALM      30.36R
ORANGEBURG     FAIR      41  39  93 CALM      30.35R
SUMTER SHAW    FAIR      40  36  87 CALM      30.34R

.........WESTERN SC.........

CITY           SKY/WX    TMP DP  RH WIND       PRES   REMARKS
GREENVILLE     NOT AVBL
ROCK HILL      FAIR      36  36 100 N5        30.36R WCI  32
ANDERSON       FAIR      44  34  67 NE5       30.35R
CLEMSON        NOT AVBL
GREENWOOD      FAIR      36  36 100 CALM      30.37R


...................COASTAL AND OFFSHORE REPORTS..................

................LOCAL PIERS AND NC RESERVE................


STATION/POSITION TIME  SKY/WX   TEMP    WIND        PRES    VSBY
                                AIR SEA DIR/SP/G
                 (UTC)          (F)     (DEG/KT/KT) (MB)    (MI)
JOHNY MRCER PIER 0948            58 62   80/ 10/ 11 1028.4R
NC RESRV MASNBRO NOT AVBL
OCEAN CREST PIER NOT AVBL
SPRINGMAID  PIER 0948                               1030.9R


................COASTAL AND OFFSHORE BUOYS................


STATION/POSITION TIME  SKY/WX   TEMP    WIND        PRES    VSBY
                                AIR SEA DIR/SP/G
                 (UTC)          (F)     (DEG/KT/KT) (MB)    (MI)
DIMNDSHOAL 41025 1000            56 69   20/ 12/ 17 1028.9
CAPE LOOKOUT     1000                    60/ 11/ 12 1029.0R
ONSLOW BAY 41036 NOT AVBL
ONSLOW BAY 41064 0908            59 65  100/  8/ 14 1028.1S
ONSLOW BAY 41159 0930               65                N/A
WVE H/P(F/S)=  3/ 8

MASNBO INL 41110 1000               60                N/A
WVE H/P(F/S)=  2/ 8

WILM HARBR 41108 0930               61                N/A
WVE H/P(F/S)=  3/ 9

27SE WRITB 41037 0908            61 66   90/ 14/ 21 1027.9R
FRYING PAN 41013 1000            61 66   50/ 16/ 19 1027.3
SUNST NRSH 41024 0908            57 61   50/  8/ 10 1027.6R
CAPRS NRSH 41029 0908            62 63   90/ 16/ 21 1026.7R
EDISTO     41004 1000            63 67   70/ 17/ 21 1025.9


..........OFFSHORE BUOYS BEYOND 100 NM OFFSHORE...........
.....IN A TRIANGLE---HAT TO BERMUDA TO BAHAMAS TO HAT.....


STATION/POSITION TIME  SKY/WX   TEMP    WIND        PRES    VSBY
                                AIR SEA DIR/SP/G
                 (UTC)          (F)     (DEG/KT/KT) (MB)    (MI)
150E HAT   41001 NOT AVBL
W BERMUDA  41048 1000               70  360/ 10/ 16 1024.8
ATLANTIC S 41049 1000               76  170/ 12/ 14 1021.5
E BAHAMAS  41046 1000               78  100/ 12/ 14 1020.0
NE BAHAMAS 41047 1000                    60/ 17/ 21 1021.1
120E CANVRL41010 1000            72 74   60/ 21/ 27 1021.4

END




USA.gov is the U.S. government's official web portal to all federal, state and local government web resources and services.